Date,TemperatureHighF,TemperatureAvgF,TemperatureLowF,DewpointHighF,DewpointAvgF,DewpointLowF,HumidityHigh,HumidityAvg,HumidityLow,PressureMaxIn,PressureMinIn,WindSpeedMaxMPH,WindSpeedAvgMPH,GustSpeedMaxMPH,PrecipitationSumIn
2013-11-1,67.4,60.7,52.3,65.0,59.3,52.0,100,96,74,29.01,28.72,23,7,28,0.13
2013-11-2,66.6,53.3,43.8,52.0,45.6,41.0,100,79,40,28.97,28.85,15,2,19,0.00
2013-11-3,48.7,40.0,29.2,48.0,28.8,18.0,100,65,39,29.59,28.97,16,5,21,0.00
2013-11-4,45.7,32.9,26.3,23.0,19.3,16.0,78,57,34,29.84,29.59,13,2,14,0.00
2013-11-5,51.9,38.2,24.9,38.0,30.0,23.0,93,72,49,29.85,29.68,10,2,12,0.00
2013-11-6,60.1,49.6,38.9,52.0,44.5,37.0,100,84,57,29.68,29.25,17,4,19,0.00
2013-11-7,59.4,50.0,36.9,59.0,48.8,28.0,100,96,68,29.25,28.93,17,5,23,0.19
2013-11-8,47.6,36.7,29.6,39.0,27.3,23.0,100,70,41,29.28,29.04,23,4,26,0.00
2013-11-9,47.7,35.7,24.7,32.0,26.6,23.0,100,69,48,29.40,29.19,13,2,15,0.00
2013-11-10,49.2,43.4,39.5,42.0,36.3,28.0,100,76,60,29.19,28.97,33,3,35,0.02
2013-11-11,52.7,43.4,34.3,32.0,28.8,26.0,72,56,41,29.30,29.10,22,4,25,0.00
2013-11-12,46.4,31.3,21.5,38.0,22.2,14.0,100,68,51,29.37,29.09,25,6,25,0.02
2013-11-13,36.8,25.8,17.9,18.0,15.3,11.0,89,64,33,29.46,29.33,21,4,23,0.00
2013-11-14,52.9,37.6,25.4,28.0,21.3,18.0,79,52,32,29.33,29.25,16,3,16,0.00
2013-11-15,59.8,44.1,33.3,33.0,21.8,16.0,66,42,19,29.39,29.30,14,2,15,0.00
2013-11-16,64.6,47.9,40.4,43.0,31.4,24.0,100,54,30,29.50,29.37,9,1,9,0.00
2013-11-17,58.7,50.0,38.4,59.0,49.9,38.0,100,100,96,29.48,29.02,13,2,15,0.00
2013-11-18,64.7,57.1,44.1,61.0,46.7,31.0,100,72,39,29.03,28.77,28,5,30,0.25
2013-11-19,43.8,36.9,25.9,32.0,23.0,18.0,73,56,41,29.47,28.91,28,8,31,0.00
2013-11-20,42.8,29.7,21.1,21.0,16.9,11.0,79,59,33,29.77,29.47,15,4,18,0.00
2013-11-21,46.5,33.1,18.5,33.0,24.1,16.0,100,70,37,29.78,29.55,10,1,11,0.00
2013-11-22,46.7,43.4,39.1,47.0,42.7,32.0,100,97,76,29.55,29.03,10,2,10,0.18
2013-11-23,46.3,35.8,22.5,46.0,27.1,16.0,100,70,45,29.14,29.00,26,6,30,0.01
2013-11-24,26.2,19.5,14.5,21.0,6.9,-6.0,89,55,28,29.38,29.01,35,10,37,0.03
2013-11-25,33.9,21.9,9.2,18.0,8.9,0.0,73,54,35,29.52,29.38,16,4,22,0.00
2013-11-26,36.7,31.7,25.6,37.0,23.1,14.0,100,70,53,29.45,29.13,15,3,17,0.22
2013-11-27,55.7,42.9,33.1,56.0,42.8,32.0,100,100,88,29.13,28.47,20,5,22,2.38
2013-11-28,33.9,25.4,17.2,33.0,16.8,11.0,96,68,42,29.58,28.70,29,6,31,0.00
2013-11-29,34.9,23.3,15.6,21.0,15.6,11.0,95,71,40,29.86,29.58,13,2,16,0.00
2013-11-30,34.7,21.9,8.7,23.0,14.4,8.0,100,72,42,29.91,29.52,10,1,10,0.00